Weather History for Cody, WY

Change the Weather History Date:

Sunday, March 2, 2014

  Actual Average Record
Temperature  
Mean Temperature 1 °F -  
Max Temperature 28 °F 43 °F 66 °F (2009)
Min Temperature -13 °F 20 °F -18 °F (1960)
Degree Days  
Heating Degree Days 64    
Moisture  
Dew Point -6 °F    
Average Humidity 71    
Maximum Humidity 92    
Minimum Humidity 31    
Precipitation  
Precipitation 0.00 in - - ()
Sea Level Pressure  
Sea Level Pressure 29.93 in    
Wind  
Wind Speed 2 mph (SE)    
Max Wind Speed 13 mph    
Max Gust Speed 18 mph    
Visibility 10 miles    
Events      
Averages and records for this station are not official NWS values.
T = Trace of Precipitation, MM = Missing Value Source: NWS Daily Summary

Daily Weather History Graph

Daily Weather History Graph

Search for Another Location

Airport:

Trip Planner

Search our weather history database for the weather conditions in past years. The results will help you decide how hot, cold, wet, or windy it might be!

Date:

Astronomy

Mar. 02, 2014 Rise Set
Actual Time 6:51 AM MST 6:05 PM MST
Civil Twilight 6:22 AM MST 6:34 PM MST
Nautical Twilight 5:48 AM MST 7:08 PM MST
Astronomical Twilight 5:15 AM MST 7:42 PM MST
Moon 7:19 AM MST (3/2) 8:11 PM MST (3/2)
Length of Visible Light 12h 12m
Length of Day
11h 13m
Waxing Crescent, 3% of the Moon is Illuminated
Mar 2
Waxing Crescent
Mar 8
First Quarter
Mar 16
Full
Mar 23
Last Quarter
Mar 30
New

Hourly Weather History & Observations

Time (MST) Temp. Windchill Dew Point Humidity Pressure Visibility Wind Dir Wind Speed Gust Speed Precip Events Conditions
12:15 AM -11.2 °F - -20.2 °F 64% 30.00 in 10.0 mi Calm Calm - N/A   Overcast
12:35 AM -11.2 °F - -20.2 °F 64% 30.00 in 10.0 mi Calm Calm - N/A   Overcast
12:55 AM -11.2 °F - -18.4 °F 70% 30.01 in 10.0 mi Calm Calm - N/A   Overcast
1:15 AM -11.2 °F - -18.4 °F 70% 30.00 in 10.0 mi Calm Calm - N/A   Overcast
1:35 AM -11.2 °F - -18.4 °F 70% 30.00 in 10.0 mi Calm Calm - N/A   Overcast
1:55 AM -9.4 °F - -18.4 °F 65% 29.99 in 10.0 mi Calm Calm - N/A   Overcast
2:15 AM -9.4 °F - -18.4 °F 65% 29.99 in 10.0 mi Calm Calm - N/A   Overcast
2:35 AM -9.4 °F - -18.4 °F 65% 29.99 in 10.0 mi Calm Calm - N/A   Overcast
2:55 AM -9.4 °F - -18.4 °F 65% 29.98 in 10.0 mi Calm Calm - N/A   Overcast
3:15 AM -9.4 °F - -16.6 °F 71% 29.98 in 10.0 mi Calm Calm - N/A   Overcast
3:35 AM -9.4 °F - -18.4 °F 65% 29.97 in 10.0 mi Calm Calm - N/A   Overcast
3:55 AM -9.4 °F - -18.4 °F 65% 29.97 in 10.0 mi Calm Calm - N/A   Scattered Clouds
4:15 AM -11.2 °F - -18.4 °F 70% 29.98 in 10.0 mi Calm Calm - N/A   Clear
4:35 AM -11.2 °F - -16.6 °F 77% 29.99 in 10.0 mi Calm Calm - N/A   Clear
4:55 AM -9.4 °F - -18.4 °F 65% 29.98 in 10.0 mi Calm Calm - N/A   Mostly Cloudy
5:15 AM -11.2 °F -20.6 °F -20.2 °F 64% 29.98 in 10.0 mi West 3.5 mph - N/A   Mostly Cloudy
5:35 AM -9.4 °F - -18.4 °F 65% 29.97 in 10.0 mi Calm Calm - N/A   Partly Cloudy
5:55 AM -11.2 °F - -20.2 °F 64% 29.97 in 10.0 mi Calm Calm - N/A   Clear
6:15 AM -11.2 °F - -20.2 °F 64% 29.97 in 10.0 mi Calm Calm - N/A   Clear
6:35 AM -13.0 °F -25.1 °F -23.8 °F 59% 29.98 in 10.0 mi South 4.6 mph - N/A   Clear
6:55 AM -11.2 °F -24.8 °F -18.4 °F 70% 29.97 in 10.0 mi South 5.8 mph - N/A   Mostly Cloudy
7:15 AM -11.2 °F -23.0 °F -20.2 °F 64% 29.96 in 10.0 mi SSE 4.6 mph - N/A   Overcast
7:35 AM -9.4 °F -25.6 °F -11.2 °F 92% 29.98 in 10.0 mi North 8.1 mph - N/A   Overcast
7:55 AM -9.4 °F -18.6 °F -20.2 °F 59% 29.99 in 10.0 mi North 3.5 mph - N/A   Overcast
8:15 AM -9.4 °F -18.6 °F -13.0 °F 84% 29.99 in 10.0 mi NNE 3.5 mph - N/A   Overcast
8:35 AM -9.4 °F -18.6 °F -18.4 °F 65% 30.00 in 10.0 mi NE 3.5 mph - N/A   Overcast
8:55 AM -7.6 °F - -11.2 °F 84% 29.99 in 10.0 mi Calm Calm - N/A   Scattered Clouds
9:15 AM -7.6 °F -20.6 °F -18.4 °F 59% 29.99 in 10.0 mi SW 5.8 mph - N/A   Partly Cloudy
9:35 AM -5.8 °F -16.7 °F -11.2 °F 77% 29.97 in 10.0 mi South 4.6 mph - N/A   Mostly Cloudy
9:55 AM -4.0 °F - -13.0 °F 65% 29.97 in 10.0 mi Calm Calm - N/A   Scattered Clouds
10:15 AM -4.0 °F - -11.2 °F 71% 29.97 in 10.0 mi Calm Calm - N/A   Partly Cloudy
10:35 AM -2.2 °F - -11.2 °F 66% 29.96 in 10.0 mi Calm Calm - N/A   Mostly Cloudy
10:55 AM -0.4 °F - -9.4 °F 66% 29.97 in 10.0 mi Calm Calm - N/A   Mostly Cloudy
11:15 AM 1.4 °F - -11.2 °F 56% 29.97 in 10.0 mi Calm Calm - N/A   Mostly Cloudy
11:35 AM 3.2 °F -4.2 °F -5.8 °F 66% 29.97 in 10.0 mi NNW 3.5 mph - N/A   Partly Cloudy
11:55 AM 5.0 °F -2.1 °F -7.6 °F 56% 29.97 in 10.0 mi North 3.5 mph - N/A   Partly Cloudy
12:15 PM 5.0 °F - -7.6 °F 56% 29.96 in 10.0 mi Calm Calm - N/A   Mostly Cloudy
12:35 PM 8.6 °F 2.0 °F -2.2 °F 62% 29.95 in 10.0 mi NW 3.5 mph - N/A   Mostly Cloudy
12:55 PM 8.6 °F 0.1 °F -0.4 °F 67% 29.94 in 10.0 mi SW 4.6 mph - N/A   Partly Cloudy
1:15 PM 8.6 °F 2.0 °F 3.2 °F 79% 29.94 in 10.0 mi NNE 3.5 mph - N/A   Mostly Cloudy
1:35 PM 10.4 °F - 1.4 °F 67% 29.92 in 10.0 mi Calm Calm - N/A   Mostly Cloudy
1:55 PM 10.4 °F - -2.2 °F 57% 29.91 in 10.0 mi Calm Calm - N/A   Mostly Cloudy
2:15 PM 10.4 °F 4.0 °F -14.8 °F 31% 29.91 in 10.0 mi East 3.5 mph - N/A   Partly Cloudy
2:35 PM 10.4 °F 0.8 °F 3.2 °F 73% 29.91 in 10.0 mi NE 5.8 mph - N/A   Partly Cloudy
2:55 PM 10.4 °F 4.0 °F 3.2 °F 73% 29.90 in 10.0 mi ESE 3.5 mph - N/A   Clear
3:15 PM 12.2 °F - 3.2 °F 67% 29.90 in 10.0 mi Calm Calm - N/A   Clear
3:35 PM 14.0 °F - 6.8 °F 73% 29.90 in 10.0 mi Calm Calm - N/A   Clear
3:55 PM 15.8 °F 7.2 °F 6.8 °F 68% 29.90 in 10.0 mi South 5.8 mph - N/A   Partly Cloudy
4:15 PM 15.8 °F 6.1 °F 6.8 °F 68% 29.89 in 10.0 mi South 6.9 mph - N/A   Partly Cloudy
4:35 PM 15.8 °F 8.6 °F 8.6 °F 73% 29.89 in 10.0 mi SSE 4.6 mph - N/A   Clear
4:55 PM 14.0 °F - 6.8 °F 73% 29.90 in 10.0 mi Calm Calm - N/A   Scattered Clouds
5:15 PM 10.4 °F - 3.2 °F 73% 29.89 in 10.0 mi Calm Calm - N/A   Mostly Cloudy
5:35 PM 12.2 °F - 5.0 °F 73% 29.89 in 10.0 mi Calm Calm - N/A   Scattered Clouds
5:55 PM 12.2 °F - 6.8 °F 79% 29.88 in 10.0 mi Calm Calm - N/A   Partly Cloudy
6:15 PM 12.2 °F - 6.8 °F 79% 29.88 in 10.0 mi Calm Calm - N/A   Mostly Cloudy
6:35 PM 14.0 °F - 8.6 °F 79% 29.88 in 10.0 mi Calm Calm - N/A   Mostly Cloudy
6:55 PM 14.0 °F - 8.6 °F 79% 29.88 in 10.0 mi Calm Calm - N/A   Overcast
7:15 PM 14.0 °F 6.5 °F 6.8 °F 73% 29.88 in 10.0 mi SW 4.6 mph - N/A   Overcast
7:35 PM 14.0 °F -0.2 °F 10.4 °F 86% 29.88 in 10.0 mi NE 12.7 mph - N/A   Overcast
7:55 PM 8.6 °F -1.3 °F 3.2 °F 79% 29.87 in 10.0 mi SSE 5.8 mph - N/A   Partly Cloudy
8:15 PM 10.4 °F -2.4 °F 5.0 °F 79% 29.86 in 10.0 mi SSW 9.2 mph - N/A   Partly Cloudy
8:35 PM 6.8 °F -2.0 °F -0.4 °F 72% 29.87 in 10.0 mi NNW 4.6 mph - N/A   Clear
8:55 PM 5.0 °F -2.1 °F 1.4 °F 85% 29.86 in 10.0 mi East 3.5 mph - N/A   Clear
9:15 PM 6.8 °F - 3.2 °F 85% 29.86 in 10.0 mi Calm Calm - N/A   Clear
9:35 PM 5.0 °F - 1.4 °F 85% 29.87 in 10.0 mi Calm Calm - N/A   Clear
9:55 PM 6.8 °F - 3.2 °F 85% 29.86 in 10.0 mi Calm Calm - N/A   Clear
10:15 PM 6.8 °F - 3.2 °F 85% 29.85 in 10.0 mi Calm Calm - N/A   Clear
10:35 PM 6.8 °F -2.0 °F 3.2 °F 85% 29.85 in 10.0 mi SW 4.6 mph - N/A   Scattered Clouds
10:55 PM 8.6 °F - 6.8 °F 92% 29.84 in 10.0 mi Calm Calm - N/A   Partly Cloudy
11:15 PM 8.6 °F 2.0 °F 6.8 °F 92% 29.83 in 10.0 mi NNW 3.5 mph - N/A   Clear
11:35 PM 6.8 °F -7.8 °F 1.4 °F 79% 29.81 in 10.0 mi SE 10.4 mph - N/A   Clear
11:55 PM 28.4 °F 18.5 °F 19.4 °F 69% 29.81 in 10.0 mi SE 11.5 mph 18.4 mph N/A   Clear